Location: Poughquag
(41.6090°N, 73.6820°W)
Time: 07:37:35
(UTC-05:00)

STRAND 1 - Pass Details

Date: 06 December 2023
Orbit: 766 x 778 km, 98.4° (Epoch: 24 February)

Event Time Altitude Azimuth Distance (km) Brightness Sun altitude
Exits shadow 19:09:43 39° 329° (NNW) 1,135 ? -30.1°
Maximum altitude 19:10:57 48° 289° (WNW) 1,004 ? -30.3°
Drops below altitude 10° 19:15:48 10° 216° (SW) 2,302 ? -31.2°
Sets 19:18:09 0° 211° (SSW) 3,226 ? -31.7°
